User: anonymous   Login
Location: STAR School
(35.3054°N, 111.2976°W)
Time: 04:03:29
(UTC-07:00)
Language:

EO-88 - Orbit

View from above orbital plane
View from above orbital plane
View from above satellite
View from above satellite

Ground track
Ground track

The orbit data is extracted from the following two-line orbital elements,

1 42017U 17008BX  19290.11748802  .00001256  00000-0  51956-4 0  9996
2 42017  97.3912 355.9108 0007914 102.6936 257.5187 15.25794969148281
Epoch (UTC): 17 October 2019 02:49:10
Eccentricity: 0.0007914
inclination: 97.3912°
perigee height: 483 km
apogee height: 494 km
right ascension of ascending node: 355.9108°
argument of perigee: 102.6936°
revolutions per day: 15.25794969
mean anomaly at epoch: 257.5187°
orbit number at epoch: 14828

The dashed part of the orbit path shows where the satellite is in the earth's shadow,  

DLR